Location: Arbon
(43.0005°N, 0.7472°E)
Time: 01:55:32
(UTC+00:00)

Cosmos 1455 Rocket - Pass Details

Date: 07 August 2020
Orbit: 604 x 630 km, 82.5° (Epoch: 19 September)

Event Time Altitude Azimuth Distance (km) Brightness Sun altitude
Exits shadow 03:11:30 31° 239° (WSW) 1,099 3.8 -16.6°
Maximum altitude 03:12:57 41° 283° (WNW) 910 3.6 -16.4°
Drops below altitude 10° 03:17:11 10° 354° (N) 2,010 6.2 -15.8°
Sets 03:19:33 0° 2° (N) 2,925 7.2 -15.5°
